Weather History for Warrenton, VA

Change the Weather History Date:

Friday, November 9, 2012

  Actual Average (KHEF) Record (KHEF)
Temperature  
Mean Temperature 47 °F -  
Max Temperature 61 °F 56 °F 75 °F (1999)
Min Temperature 33 °F 32 °F 24 °F (2004)
Degree Days  
Heating Degree Days 18    
Moisture  
Dew Point 38 °F    
Average Humidity 75    
Maximum Humidity 100    
Minimum Humidity 49    
Precipitation  
Precipitation 0.00 in - - ()
Sea Level Pressure  
Sea Level Pressure 30.17 in    
Wind  
Wind Speed 5 mph (NNW)    
Max Wind Speed 14 mph    
Max Gust Speed 18 mph    
Visibility 10 miles    
Events      
Averages and records for this station are not official NWS values.
T = Trace of Precipitation, MM = Missing Value Source: NWS Daily Summary

Daily Weather History Graph

Daily Weather History Graph

Search for Another Location

Airport:

Trip Planner

Search our weather history database for the weather conditions in past years. The results will help you decide how hot, cold, wet, or windy it might be!

Date:

Astronomy

Nov. 09, 2012 Rise Set
Actual Time 6:46 AM EST 5:02 PM EST
Civil Twilight 6:18 AM EST 5:30 PM EST
Nautical Twilight 5:46 AM EST 6:01 PM EST
Astronomical Twilight 5:15 AM EST 6:33 PM EST
Moon 1:46 AM EST (11/9) 2:11 PM EST (11/9)
Length of Visible Light 11h 11m
Length of Day
10h 15m
Waning Crescent, 23% of the Moon is Illuminated
Nov 9
Waning Crescent
Nov 13
New
Nov 20
First Quarter
Nov 28
Full
Dec 6
Last Quarter

Hourly Weather History & Observations

Time (EST) Temp. Windchill Dew Point Humidity Pressure Visibility Wind Dir Wind Speed Gust Speed Precip Events Conditions
12:15 AM 43.3 °F 37.7 °F 34.3 °F 71% 30.08 in 10.0 mi NW 10.4 mph - N/A   Clear
12:35 AM 43.5 °F 37.9 °F 34.7 °F 71% 30.08 in 10.0 mi NW 10.4 mph - N/A   Clear
12:55 AM 43.7 °F 39.1 °F 34.7 °F 71% 30.08 in 10.0 mi NNW 8.1 mph - N/A   Clear
1:15 AM 43.7 °F 39.7 °F 34.7 °F 71% 30.08 in 10.0 mi NW 6.9 mph - N/A   Clear
1:35 AM 42.6 °F 39.0 °F 34.3 °F 73% 30.09 in 10.0 mi NNW 5.8 mph - N/A   Clear
1:55 AM 41.4 °F 36.8 °F 33.8 °F 74% 30.09 in 10.0 mi NW 6.9 mph - N/A   Clear
2:15 AM 41.2 °F - 33.6 °F 74% 30.10 in 10.0 mi Calm Calm - N/A   Clear
2:35 AM 38.8 °F - 32.7 °F 79% 30.10 in 10.0 mi Calm Calm - N/A   Clear
2:55 AM 36.7 °F 34.1 °F 32.9 °F 86% 30.11 in 10.0 mi East 3.5 mph - N/A   Clear
3:15 AM 35.6 °F - 32.2 °F 87% 30.11 in 10.0 mi Calm Calm - N/A   Clear
3:35 AM 34.3 °F - 32.4 °F 92% 30.11 in 10.0 mi Calm Calm - N/A   Clear
3:55 AM 34.5 °F - 32.0 °F 90% 30.11 in 10.0 mi Calm Calm - N/A   Clear
4:15 AM 35.6 °F 32.8 °F 32.2 °F 87% 30.11 in 10.0 mi SE 3.5 mph - N/A   Clear
4:35 AM 37.8 °F - 33.4 °F 84% 30.12 in 10.0 mi Calm Calm - N/A   Clear
4:55 AM 37.0 °F - 33.6 °F 87% 30.13 in 10.0 mi Calm Calm - N/A   Clear
5:15 AM 38.7 °F - 33.1 °F 80% 30.13 in 10.0 mi Calm Calm - N/A   Clear
5:35 AM 40.6 °F - 34.2 °F 78% 30.13 in 10.0 mi Calm Calm - N/A   Clear
5:55 AM 39.7 °F - 34.0 °F 80% 30.14 in 10.0 mi Calm Calm - N/A   Clear
6:15 AM 40.8 °F 35.6 °F 35.1 °F 80% 30.14 in 10.0 mi WNW 8.1 mph - N/A   Clear
6:35 AM 42.4 °F 37.0 °F 35.6 °F 77% 30.15 in 10.0 mi NW 9.2 mph - N/A   Clear
6:55 AM 43.7 °F - 35.8 °F 74% 30.16 in 10.0 mi Calm Calm - N/A   Clear
7:15 AM 41.5 °F 39.6 °F 35.4 °F 79% 30.17 in 10.0 mi NE 3.5 mph - N/A   Clear
7:35 AM 45.0 °F - 36.7 °F 73% 30.18 in 10.0 mi Calm Calm - N/A   Clear
7:55 AM 45.7 °F 42.7 °F 37.4 °F 73% 30.20 in 10.0 mi NNE 5.8 mph - N/A   Clear
8:15 AM 47.7 °F - 38.3 °F 70% 30.20 in 10.0 mi NNW 8.1 mph - N/A   Clear
8:35 AM 48.9 °F - 38.5 °F 67% 30.20 in 10.0 mi North 3.5 mph - N/A   Clear
8:55 AM 50.4 °F - 39.6 °F 66% 30.20 in 10.0 mi NNW 5.8 mph - N/A   Clear
9:15 AM 51.8 °F - 39.7 °F 63% 30.21 in 10.0 mi NNW 8.1 mph - N/A   Clear
9:35 AM 52.5 °F - 40.1 °F 63% 30.21 in 10.0 mi NNW 11.5 mph 16.1 mph N/A   Clear
9:55 AM 53.4 °F - 40.3 °F 61% 30.22 in 10.0 mi NNW 11.5 mph 18.4 mph N/A   Clear
10:15 AM 54.3 °F - 39.9 °F 58% 30.23 in 10.0 mi NW 9.2 mph 17.3 mph N/A   Clear
10:35 AM 55.2 °F - 41.0 °F 59% 30.22 in 10.0 mi North 13.8 mph - N/A   Clear
10:55 AM 56.3 °F - 41.5 °F 58% 30.23 in 10.0 mi North 11.5 mph - N/A   Clear
11:15 AM 55.9 °F - 41.2 °F 58% 30.23 in 10.0 mi North 11.5 mph 16.1 mph N/A   Clear
11:35 AM 56.5 °F - 41.5 °F 57% 30.22 in 10.0 mi NNW 12.7 mph - N/A   Clear
11:55 AM 56.8 °F - 41.5 °F 57% 30.21 in 10.0 mi NNW 11.5 mph - N/A   Clear
12:15 PM 57.2 °F - 42.1 °F 57% 30.20 in 10.0 mi North 5.8 mph - N/A   Clear
12:35 PM 57.7 °F - 41.7 °F 55% 30.19 in 10.0 mi NW 6.9 mph - N/A   Clear
12:55 PM 58.1 °F - 41.5 °F 54% 30.19 in 10.0 mi North 5.8 mph - N/A   Clear
1:15 PM 59.5 °F - 42.4 °F 53% 30.19 in 10.0 mi NW 8.1 mph - N/A   Clear
1:35 PM 60.4 °F - 42.6 °F 52% 30.18 in 10.0 mi West 3.5 mph - N/A   Clear
1:55 PM 60.4 °F - 43.0 °F 53% 30.17 in 10.0 mi NNW 9.2 mph - N/A   Clear
2:15 PM 60.8 °F - 42.3 °F 50% 30.17 in 10.0 mi NW 8.1 mph - N/A   Clear
2:35 PM 61.7 °F - 42.3 °F 49% 30.17 in 10.0 mi North 3.5 mph - N/A   Clear
2:55 PM 60.8 °F - 42.1 °F 50% 30.16 in 10.0 mi NW 3.5 mph - N/A   Clear
3:15 PM 60.8 °F - 42.1 °F 50% 30.16 in 10.0 mi Calm Calm - N/A   Clear
3:35 PM 60.8 °F - 42.1 °F 50% 30.16 in 10.0 mi Calm Calm - N/A   Clear
3:55 PM 60.8 °F - 43.3 °F 53% 30.16 in 10.0 mi Calm Calm - N/A   Clear
4:15 PM 60.1 °F - 43.0 °F 53% 30.16 in 4.0 mi SE 3.5 mph - N/A   Haze
4:35 PM 58.5 °F - 42.4 °F 55% 30.16 in 10.0 mi Calm Calm - N/A   Clear
4:55 PM 56.5 °F - 41.9 °F 58% 30.16 in 10.0 mi Calm Calm - N/A   Clear
5:15 PM 52.0 °F - 41.2 °F 67% 30.16 in 10.0 mi Calm Calm - N/A   Clear
5:35 PM 46.4 °F - 40.8 °F 81% 30.17 in 10.0 mi Calm Calm - N/A   Clear
5:55 PM 47.8 °F - 41.4 °F 78% 30.18 in 10.0 mi Calm Calm - N/A   Clear
6:15 PM 45.5 °F 43.2 °F 41.5 °F 86% 30.19 in 10.0 mi NNE 4.6 mph - N/A   Clear
6:35 PM 42.6 °F - 40.3 °F 91% 30.19 in 10.0 mi Calm Calm - N/A   Clear
6:55 PM 42.6 °F - 40.3 °F 91% 30.19 in 10.0 mi Calm Calm - N/A   Clear
7:15 PM 41.0 °F - 39.2 °F 93% 30.20 in 10.0 mi Calm Calm - N/A   Clear
7:35 PM 39.2 °F - 37.8 °F 95% 30.20 in 10.0 mi Calm Calm - N/A   Clear
7:55 PM 39.4 °F - 39.0 °F 99% 30.20 in 10.0 mi Calm Calm - N/A   Clear
8:15 PM 39.7 °F - 38.5 °F 95% 30.20 in 10.0 mi Calm Calm - N/A   Clear
8:35 PM 39.9 °F - 39.7 °F 99% 30.21 in 10.0 mi Calm Calm - N/A   Clear
8:55 PM 38.3 °F - 38.3 °F 100% 30.21 in 10.0 mi Calm Calm - N/A   Clear
9:15 PM 38.5 °F - 38.5 °F 100% 30.21 in 10.0 mi Calm Calm - N/A   Clear
9:35 PM 36.3 °F - 36.3 °F 100% 30.22 in 10.0 mi Calm Calm - N/A   Clear
9:55 PM 37.9 °F - 37.9 °F 100% 30.21 in 10.0 mi Calm Calm - N/A   Clear
10:15 PM 35.6 °F - 35.6 °F 100% 30.21 in 10.0 mi Calm Calm - N/A   Clear
10:35 PM 36.0 °F - 36.0 °F 100% 30.21 in 10.0 mi Calm Calm - N/A   Clear
10:55 PM 34.5 °F - 34.5 °F 100% 30.21 in 7.0 mi Calm Calm - N/A   Clear
11:15 PM 33.6 °F - 33.6 °F 100% 30.22 in 7.0 mi Calm Calm - N/A   Clear
11:35 PM 35.8 °F - 35.8 °F 100% 30.22 in 10.0 mi Calm Calm - N/A   Clear
11:55 PM 34.7 °F - 34.7 °F 100% 30.23 in 10.0 mi Calm Calm - N/A   Clear